This is the latest recevied weather packets stored in our database for station/object WX0ABE-13. If no packets are shown the sender has not sent any weather packets the latest 10 day(s).
| Time | Temp. | Humidity | Pressure | Rain* | Wind** | Luminosity | Snow |
|---|---|---|---|---|---|---|---|
| 1788339854 | 17.78° C | 76% | 1015.6 hPa | 0 mm | - | 0 W/m² | - |
| 1788339552 | 17.78° C | 75% | 1015.4 hPa | 0 mm | - | 0 W/m² | - |
| 1788339248 | 18.33° C | 74% | 1015.5 hPa | 0 mm | - | 0 W/m² | - |
| 1788338943 | 18.33° C | 74% | 1015.6 hPa | 0 mm | - | 0 W/m² | - |
| 1788338639 | 18.89° C | 73% | 1015.9 hPa | 0 mm | - | 0 W/m² | - |
| 1788338335 | 18.89° C | 72% | 1015.6 hPa | 0 mm | - | 0 W/m² | - |
| 1788338035 | 18.89° C | 72% | 1015.8 hPa | 0 mm | - | 0 W/m² | - |
| 1788337730 | 19.44° C | 71% | 1015.7 hPa | 0 mm | - | 0 W/m² | - |
| 1788337426 | 19.44° C | 69% | 1015.5 hPa | 0 mm | - | 0 W/m² | - |
| 1788337122 | 20° C | 67% | 1015.5 hPa | 0 mm | - | 0 W/m² | - |
| 1788336817 | 20° C | 66% | 1015.5 hPa | 0 mm | - | 0 W/m² | - |
| 1788336512 | 20° C | 66% | 1015.4 hPa | 0 mm | - | 0 W/m² | - |
| 1788336209 | 20° C | 67% | 1015.4 hPa | 0 mm | - | 0 W/m² | - |
| 1788335908 | 20° C | 68% | 1015.3 hPa | 0 mm | - | 0 W/m² | - |
| 1788335605 | 20° C | 68% | 1015.4 hPa | 0 mm | - | 0 W/m² | - |
| 1788335300 | 20° C | 68% | 1015.4 hPa | 0 mm | - | 0 W/m² | - |
| 1788334996 | 20° C | 67% | 1015.5 hPa | 0 mm | - | 0 W/m² | - |
| 1788334695 | 20° C | 67% | 1015.4 hPa | 0 mm | - | 0 W/m² | - |
| 1788334392 | 20° C | 67% | 1015.4 hPa | 0 mm | - | 0 W/m² | - |
| 1788334088 | 20.56° C | 66% | 1015.5 hPa | 0 mm | - | 0 W/m² | - |
| 1788333783 | 20.56° C | 65% | 1015.7 hPa | 0 mm | - | 0 W/m² | - |
| 1788333479 | 20.56° C | 64% | 1015.5 hPa | 0 mm | - | 0 W/m² | - |
| 1788333174 | 20° C | 66% | 1015.6 hPa | 0 mm | - | 0 W/m² | - |
| 1788332871 | 20.56° C | 65% | 1015.7 hPa | 0 mm | - | 0 W/m² | - |
| 1788332570 | 20.56° C | 64% | 1015.7 hPa | 0 mm | - | 0 W/m² | - |
* Rain latest hour (hover to see other rain measurements)
** Current wind speed in m/s (hover to see current wind gust speed)